{"data":{"norad_id":57136,"intl_designator":"2023-090AM","name":"STARLINK-6112","alt_names":[],"object_type":"PAYLOAD","status":"ACTIVE","operator":null,"country":"US","launch_date":"2023-06-23","launch_site_code":"AFETR","launch_vehicle":null,"mission":null,"orbit_class":"UNKNOWN","rcs_meters":null,"size_class":null,"mass_kg":null,"dimensions":null,"purposes":["comms"],"wikipedia_slug":null,"has_3d_model":false,"image_url":null,"decayed_at":null,"tle_current":{"epoch":"2026-05-25T04:13:50.160000Z","epoch_age_seconds":59484,"freshness":"FRESH","line1":"1 57136U 23090AM  26145.17627500 -.00000463  00000+0 -73096-5 0  9996","line2":"2 57136  43.0026 191.1665 0001419 287.7790  72.2907 15.27575585162076","mean_motion":15.27575585,"eccentricity":0.0001419,"inclination_deg":43.0026,"raan_deg":191.1665,"arg_perigee_deg":287.779,"mean_anomaly_deg":72.2907,"bstar":-7.3096e-6,"rev_number":16207,"period_min":94.267021163473,"perigee_km":482.08871198682,"apogee_km":484.03592035275,"semimajor_km":6861.1993161698,"source":"CELESTRAK","updated_at":"2026-05-25T13:38:18.246755Z"}}}